Weather observations for the past three days for
Point Thomson Airstrip
Imperial (Metric)
Date Time (akdt) Wind (mph) Vis. (mi.) Weather Sky Cond. Temperature (ºF) Relative Humidity Wind Chill (°F) Heat Index (°F) Pressure Precipitation (in)
Air Dwpt 6 hour altimeter (in) sea level (mb) 1 hr 3 hr 6 hr
Max. Min.
04 13:55 E 18 10.00 Overcast OVC004 29.7 28.9 97% 18 30.13 0.0
04 13:35 E 17 10.00 Overcast OVC004 29.8 28.9 96% 19 30.13 0.0
04 13:15 E 18 10.00 Overcast OVC004 29.8 28.9 96% 18 30.13 0.0
04 12:55 E 16 10.00 Overcast OVC004 30.2 29.1 96% 20 30.12 0.0
04 12:35 E 16 10.00 Overcast OVC004 29.8 28.9 96% 19 30.12 0.0
04 12:15 E 18 10.00 Overcast OVC004 30 28.9 96% 19 30.11 0.0
04 11:55 E 16 10.00 Overcast OVC004 29.7 28.8 96% 19 30.11 0.0
04 11:35 E 15 5.00 Fog/Mist OVC004 29.5 28.8 97% 19 30.11 0.0
04 11:15 E 20 G 24 10.00 Overcast OVC004 29.3 28.4 96% 17 30.1 0.0
04 10:55 E 18 10.00 Overcast OVC004 29.8 28.9 96% 18 30.09 0.0
04 10:35 E 16 10.00 Overcast OVC004 28.9 28.2 97% 18 30.09 0.0
04 10:15 E 17 G 23 10.00 Overcast OVC004 28.9 28.4 98% 18 30.08 0.0
04 09:55 E 18 G 24 10.00 Overcast OVC004 28.6 28 28.8 27.5 98% 17 30.08 0.0
04 09:35 E 16 G 21 10.00 Overcast OVC004 28.6 28 98% 18 30.08 0.0
04 09:15 E 17 10.00 Overcast OVC004 28.4 28 99% 17 30.08 0.0
04 08:55 E 15 G 21 10.00 Overcast OVC004 28.2 27.9 99% 18 30.08 0.0
04 08:35 E 16 G 21 5.00 Fog/Mist OVC004 28.2 28 99% 17 30.07 0.0
04 08:15 E 16 4.00 Fog/Mist OVC004 28.2 28 99% 17 30.07 0.0
04 07:55 E 15 10.00 Overcast OVC004 28 27.9 99% 17 30.07 0.0
04 07:35 E 14 7.00 Overcast OVC004 28.2 28 99% 18 30.08 0.0
04 07:15 E 15 10.00 Overcast OVC004 28 27.7 99% 17 30.07 0.0
04 06:55 E 14 10.00 Overcast OVC004 28 27.7 99% 18 30.08 0.0
04 06:35 E 14 G 21 1.50 Fog/Mist OVC002 27.5 27.5 100% 17 30.07 0.0
04 06:15 E 16 3.00 Fog/Mist OVC002 27.7 27.7 100% 16 30.06 0.0
04 05:55 E 16 5.00 Fog/Mist OVC002 27.9 27.7 99% 17 30.06 0.0
04 05:35 E 17 7.00 Overcast OVC002 27.9 27.9 100% 16 30.06 0.0
04 05:15 E 15 G 21 3.00 Fog/Mist OVC002 27.9 27.9 100% 17 30.06 0.0
04 04:55 E 14 4.00 Fog/Mist OVC002 27.9 27.9 100% 18 30.06 0.0
04 04:35 E 15 4.00 Fog/Mist OVC002 28 28 100% 17 30.07 0.0
04 04:15 E 16 2.00 Fog/Mist OVC002 28 27.9 99% 17 30.06 0.0
04 03:55 E 17 4.00 Fog/Mist OVC002 28.4 28.4 31.6 28.4 100% 17 30.05 0.0
04 03:35 E 15 G 21 7.00 Overcast OVC004 28.8 28.4 99% 18 30.06 0.0
04 03:15 E 15 G 20 10.00 Overcast OVC004 28.8 28.4 99% 18 30.07 0.0
04 02:55 E 13 4.00 Fog/Mist OVC004 28.9 28.8 99% 19 30.07 0.0
04 02:35 E 15 7.00 Overcast OVC004 29.1 28.8 99% 19 30.07 0.0
04 02:15 E 15 G 18 1.00 Fog/Mist OVC004 29.3 29.1 99% 19 30.07 0.0
04 01:55 E 13 G 18 5.00 Fog/Mist OVC004 29.8 29.3 98% 21 30.08 0.0
04 01:35 E 13 10.00 Overcast OVC004 30.2 29.3 96% 21 30.08 0.0
04 01:15 E 13 10.00 Overcast OVC006 30.4 29.3 96% 21 30.08 0.0
04 00:55 E 13 10.00 Overcast OVC008 30.7 29.3 94% 22 30.08 0.0
04 00:35 E 10 10.00 Overcast OVC008 30.9 29.3 94% 23 30.08 0.0
04 00:15 E 13 10.00 Overcast OVC010 31.5 29.8 94% 23 30.08 0.0
03 23:55 E 13 10.00 Overcast OVC010 31.1 29.7 94% 22 30.08 0.0
03 23:35 E 10 10.00 Overcast OVC010 30.9 29.3 94% 23 30.09 0.0
03 23:15 E 10 10.00 Mostly Cloudy BKN008 30.9 29.3 94% 23 30.09 0.0
03 22:55 E 10 10.00 Mostly Cloudy BKN008 30.9 29.7 95% 23 30.09 0.0
03 22:35 E 12 10.00 Mostly Cloudy BKN008 31.6 30 94% 23 30.08 0.0
03 22:15 E 10 10.00 Mostly Cloudy BKN008 31.1 30.2 96% 23 30.08 0.0
03 21:55 E 8 10.00 Fair CLR 30.4 29.5 37.4 30.2 96% 24 30.08 0.0
03 21:35 E 7 10.00 Fair CLR 30.2 29.3 96% 24 30.08 0.0
03 21:15 E 8 10.00 Fair CLR 30.9 29.8 96% 24 30.08 0.0
03 20:55 E 7 10.00 Fair CLR 30.9 29.8 96% 25 30.08 0.0
03 20:35 E 7 10.00 Fair CLR 32 30.4 94% 26 30.08 0.0
03 20:15 E 8 10.00 Fair CLR 33.3 31.3 92% 27 30.08 0.0
03 19:55 E 8 10.00 Partly Cloudy SCT017 34 32 92% 28 30.08 0.0
03 19:35 E 7 10.00 Partly Cloudy SCT017 SCT024 34 32 92% 29 30.09 0.0
03 19:15 E 7 10.00 Mostly Cloudy BKN024 34.2 32 92% 29 30.09 0.0
03 18:55 NE 7 10.00 Partly Cloudy SCT028 34.7 32.2 91% 29 30.09 0.0
03 18:35 NE 7 10.00 Partly Cloudy SCT017 SCT031 35.2 32 88% 30 30.1 0.0
03 18:15 NE 6 10.00 Mostly Cloudy SCT017 BKN035 36 32.2 86% 32 30.09 0.0
03 17:55 NE 5 10.00 Mostly Cloudy SCT017 BKN035 36.3 32 84% 33 30.09 0.0
03 17:35 NE 5 10.00 Fair CLR 36 32 86% 33 30.09 0.0
03 17:15 NE 3 10.00 Partly Cloudy SCT014 SCT024 36.1 32 85% 30.09 0.0
03 16:55 N 5 10.00 Mostly Cloudy BKN016 BKN025 BKN030 37 32 82% 34 30.09 0.0
03 16:35 N 5 10.00 Mostly Cloudy BKN017 36.5 31.6 83% 33 30.09 0.0
03 16:15 N 3 10.00 Overcast BKN015 OVC023 36.1 32 85% 30.09 0.0
03 15:55 N 6 10.00 Overcast BKN013 OVC019 36 31.8 37.4 33.8 85% 32 30.09 0.0
03 15:35 N 5 10.00 Overcast OVC019 36.3 32 84% 33 30.09 0.0
03 15:15 NW 5 10.00 Overcast OVC019 36.9 31.1 80% 34 30.09 0.0
03 14:55 NW 7 10.00 Overcast OVC019 36.9 31.5 81% 32 30.09 0.0
03 14:35 NW 9 10.00 Overcast BKN019 OVC026 37 31.5 80% 31 30.09 0.0
03 14:15 NW 9 10.00 Overcast BKN017 OVC022 37.4 32 81% 31 30.09 0.0
03 13:55 W 9 10.00 Overcast BKN017 OVC022 37 32 82% 31 30.09 0.0
03 13:35 W 9 10.00 Overcast OVC017 36.9 32 83% 31 30.08 0.0
03 13:15 W 12 10.00 Overcast OVC017 36.5 31.6 83% 29 30.08 0.0
03 12:55 W 12 10.00 Overcast OVC013 36 31.8 85% 29 30.07 0.0
03 12:35 W 14 10.00 Overcast OVC013 35.8 32 86% 28 30.06 0.0
03 12:15 W 15 10.00 Overcast OVC013 35.2 32 88% 26 30.06 0.0
03 11:55 W 15 G 18 10.00 Overcast BKN013 OVC022 35.1 32 89% 26 30.05 0.0
03 11:35 W 15 10.00 Overcast BKN011 BKN022 OVC060 34.9 32 89% 26 30.05 0.0
03 11:15 W 15 10.00 Overcast BKN011 OVC060 34.7 32.2 91% 26 30.05 0.0
03 10:55 W 14 10.00 Overcast SCT011 BKN060 OVC095 34.2 32 92% 25 30.04 0.0
03 10:35 W 15 10.00 Overcast BKN050 BKN075 OVC095 34 32 92% 25 30.03 0.0
03 10:15 W 14 10.00 Overcast SCT010 SCT030 OVC095 34 32.2 93% 25 30.03 0.0
03 09:55 W 14 G 20 10.00 Overcast BKN010 BKN014 OVC095 33.8 32 33.8 32 93% 25 30.02 0.0
03 09:35 W 13 10.00 Overcast BKN012 BKN024 OVC045 33.4 32 94% 25 30.02 0.0
03 09:15 W 15 10.00 Overcast SCT010 BKN014 OVC024 33.4 32 94% 24 30.02 0.0
03 08:55 W 14 10.00 Overcast SCT010 OVC014 33.4 32.2 95% 25 30.01 0.0
03 08:35 W 14 G 21 10.00 Overcast SCT007 OVC014 33.3 32.4 97% 24 30.01 0.0
03 08:15 W 15 10.00 Light Drizzle BKN009 OVC014 32.9 32.4 98% 23 30 0.0
03 07:55 W 14 7.00 Light Rain OVC012 32.9 32.2 97% 24 30 0.0
03 07:35 SW 15 7.00 Light Snow OVC012 32.4 32 99% 23 29.99 0.0
03 07:15 W 15 G 22 10.00 Light Rain OVC012 32.7 32 97% 23 29.99 0.0
03 06:55 SW 16 10.00 Overcast OVC014 32.4 32 99% 22 29.98 0.0
03 06:35 SW 17 10.00 Overcast OVC014 32.4 31.8 98% 22 29.98 0.0
03 06:15 SW 17 10.00 Overcast OVC012 32.4 31.6 97% 22 29.97 0.0
03 05:55 SW 14 10.00 Overcast OVC012 32.2 31.6 98% 23 29.97 0.0
03 05:35 SW 14 10.00 Overcast OVC012 32 31.6 99% 23 29.97 0.0
03 05:15 SW 15 10.00 Overcast BKN012 BKN024 OVC046 32 31.1 96% 22 29.97 0.0
03 04:55 SW 14 10.00 Overcast SCT012 BKN024 OVC095 32 31.1 96% 23 29.96 0.0
03 04:35 SW 15 10.00 Overcast BKN012 BKN024 OVC047 32 31.1 96% 22 29.96 0.0
03 04:15 SW 15 G 18 10.00 Overcast SCT023 BKN036 OVC100 32 31.1 96% 22 29.95 0.0
03 03:55 SW 13 10.00 Overcast SCT018 BKN070 OVC100 32 31.1 32.5 30.9 96% 23 29.95 0.0
03 03:35 SW 13 10.00 Overcast BKN016 BKN065 OVC100 31.8 31.1 97% 23 29.95 0.0
03 03:15 SW 13 10.00 Overcast SCT016 BKN065 OVC090 31.8 31.1 97% 23 29.94 0.0
03 02:55 SW 13 10.00 Light Snow SCT016 BKN032 OVC070 31.1 31.1 100% 22 29.93 0.0
03 02:35 SW 8 5.00 Light Snow SCT010 BKN014 OVC020 30.9 30.7 99% 24 29.93 0.0
03 02:15 SW 9 3.00 Light Snow BKN014 OVC020 30.9 30.7 99% 24 29.93 0.0
03 01:55 SW 9 3.00 Light Snow OVC016 31.1 30.6 98% 24 29.92 0.0
03 01:35 SW 10 4.00 Light Snow SCT014 BKN025 OVC050 32 29.3 90% 24 29.92 0.0
03 01:15 SW 8 10.00 Light Snow SCT050 OVC065 32.4 27.9 84% 26 29.92 0.0
03 00:55 SW 8 10.00 Overcast SCT047 OVC065 31.8 28 86% 25 29.91 0.0
03 00:35 S 6 10.00 Overcast BKN045 BKN060 OVC075 32 28.4 87% 27 29.9 0.0
03 00:15 S 7 10.00 Overcast BKN045 OVC065 32 28 85% 26 29.9 0.0
02 23:55 S 8 10.00 Overcast SCT045 BKN060 OVC095 32 28 85% 25 29.9 0.0
02 23:35 S 7 10.00 Overcast BKN060 OVC075 32 27.9 85% 26 29.9 0.0
02 23:15 S 8 10.00 Overcast BKN060 OVC070 32 27.7 84% 25 29.9 0.0
02 22:55 S 7 10.00 Overcast SCT046 SCT070 OVC080 32 28 85% 26 29.91 0.0
02 22:35 S 6 10.00 Overcast SCT046 BKN070 OVC080 32 29.8 92% 27 29.91 0.0
02 22:15 SE 8 10.00 Overcast OVC070 32 30.4 94% 25 29.91 0.0
02 21:55 SE 6 10.00 Overcast BKN070 OVC090 32.4 31.1 38.3 32.4 95% 27 29.91 0.0
02 21:35 SE 3 10.00 Overcast SCT055 SCT075 OVC090 33.8 31.6 92% 29.91 0.0
02 21:15 Calm 10.00 Overcast SCT065 OVC100 34.5 31.5 89% 29.91 0.0
02 20:55 Calm 10.00 Overcast BKN065 BKN095 OVC110 35.1 31.6 87% 29.92 0.0
02 20:35 Calm 10.00 Overcast SCT050 BKN065 OVC110 34.3 31.5 89% 29.92 0.0
02 20:15 NW 3 10.00 Overcast SCT024 BKN065 OVC100 35.2 30.7 84% 29.91 0.0
02 19:55 Calm 10.00 Overcast SCT038 BKN060 OVC070 36 31.5 84% 29.91 0.0
02 19:35 Calm 10.00 Overcast SCT038 BKN055 OVC070 36.3 31.1 81% 29.9 0.0
02 19:15 Calm 10.00 Overcast SCT038 BKN046 OVC060 36.3 30.4 79% 29.91 0.0
02 18:55 N 3 10.00 Overcast OVC044 35.8 31.1 83% 29.91 0.0
02 18:35 N 5 10.00 Overcast OVC042 35.6 30.9 83% 32 29.9 0.0
02 18:15 N 5 10.00 Overcast SCT038 OVC048 36.1 31.1 82% 33 29.9 0.0
02 17:55 NW 6 10.00 Overcast SCT037 OVC050 36 31.5 84% 32 29.9 0.0
02 17:35 W 6 10.00 Overcast SCT023 BKN035 OVC055 36 30.9 82% 32 29.9 0.0
02 17:15 SW 8 10.00 Overcast SCT025 BKN033 OVC049 37.4 30 75% 32 29.9 0.0
02 16:55 E 7 10.00 Overcast SCT035 OVC049 37.2 29.5 74% 32 29.89 0.0
02 16:35 NE 6 10.00 Overcast BKN035 OVC049 37.2 29.1 73% 33 29.89 0.0
02 16:15 W 6 10.00 Overcast SCT035 BKN042 OVC047 38.3 26.1 61% 34 29.89 0.0
02 15:55 SW 8 10.00 Overcast BKN035 BKN043 OVC110 38.3 25.5 38.5 33.4 60% 33 29.89 0.0
02 15:35 SW 5 10.00 Overcast SCT037 BKN047 OVC110 37.9 25.3 61% 35 29.89 0.0
02 15:15 N 5 10.00 Overcast OVC035 36.9 29.7 75% 34 29.89 0.0
02 14:55 NW 6 10.00 Overcast OVC035 37 26.2 65% 33 29.89 0.0
02 14:35 W 5 10.00 Overcast BKN032 OVC039 37.4 27 66% 34 29.89 0.0
02 14:15 SW 7 10.00 Overcast SCT025 BKN030 OVC090 37.4 28.4 70% 33 29.88 0.0
02 13:55 W 3 10.00 Overcast SCT024 BKN030 OVC085 36.7 28.6 73% 29.88 0.0
02 13:35 SW 9 10.00 Overcast SCT022 BKN030 OVC085 36.3 31.1 81% 30 29.89 0.0
02 13:15 SW 8 7.00 Light Rain SCT019 BKN026 OVC085 34 31.6 91% 28 29.89 0.0
02 12:55 SW 8 7.00 Light Rain SCT022 BKN027 OVC035 34.2 30 85% 28 29.89 0.0
02 12:35 W 8 10.00 Overcast BKN020 BKN026 OVC080 35.6 29.5 78% 30 29.89 0.0
02 12:15 SW 7 10.00 Overcast SCT016 OVC080 35.2 29.7 80% 30 29.89 0.0
02 11:55 W 6 10.00 Overcast SCT014 OVC090 34.7 29.8 82% 30 29.89 0.0
02 11:35 W 8 10.00 Overcast SCT012 SCT025 OVC090 34.7 31.3 87% 29 29.88 0.0
02 11:15 W 8 10.00 Overcast SCT024 BKN075 OVC090 34.2 30.9 88% 28 29.88 0.0
02 10:55 W 7 10.00 Overcast BKN022 BKN050 OVC075 33.8 30.7 89% 28 29.88 0.0
02 10:35 W 7 10.00 Overcast SCT014 BKN022 OVC075 34 31.1 89% 29 29.88 0.0
02 10:15 W 7 10.00 Overcast SCT007 BKN014 OVC022 33.8 32 93% 28 29.88 0.0
02 09:55 W 8 10.00 Overcast SCT007 BKN016 OVC075 33.4 32.5 33.4 31.8 97% 27 29.87 0.0
02 09:35 W 7 10.00 Overcast SCT005 SCT011 OVC085 32.9 32.4 98% 27 29.87 0.0
02 09:15 W 6 10.00 Overcast SCT004 BKN019 OVC085 32.5 32.2 99% 28 29.86 0.0
02 08:55 W 7 10.00 Overcast SCT004 BKN020 OVC090 32.4 32 99% 27 29.86 0.0
02 08:35 W 6 10.00 Overcast SCT004 SCT014 OVC020 32.9 32.2 97% 28 29.86 0.0
02 08:15 Calm 10.00 Overcast OVC022 33.1 32.2 97% 29.85 0.0
02 07:55 Calm 10.00 Overcast SCT006 BKN024 OVC031 33.1 32.4 97% 29.84 0.0
02 07:35 N 3 10.00 Overcast SCT006 OVC028 32.9 32.4 98% 29.84 0.0
02 07:15 N 5 10.00 Overcast SCT008 OVC024 32.9 32.2 97% 29 29.84 0.0
02 06:55 NW 6 10.00 Overcast BKN008 BKN012 OVC024 32.9 32.4 98% 28 29.84 0.0
02 06:35 NW 6 10.00 Overcast OVC026 32 32 100% 27 29.83 0.0
02 06:15 NW 5 10.00 Overcast OVC028 32 32 100% 28 29.82 0.0
02 05:55 W 5 10.00 Overcast BKN027 BKN060 OVC090 32 32 100% 28 29.82 0.0
02 05:35 W 5 10.00 Overcast SCT029 BKN075 OVC090 32 32 100% 28 29.82 0.0
02 05:15 W 5 10.00 Overcast SCT004 SCT026 OVC085 32 31.8 99% 28 29.82 0.0
02 04:55 W 6 10.00 Overcast SCT004 BKN028 OVC090 32 32 100% 27 29.81 0.0
02 04:35 W 7 10.00 Overcast SCT004 OVC028 32 32 100% 26 29.81 0.0
02 04:15 W 6 10.00 Overcast SCT006 OVC026 32 31.8 99% 27 29.81 0.0
02 03:55 W 8 10.00 Overcast OVC028 32 31.6 33.8 32 99% 25 29.8 0.0
02 03:35 W 8 10.00 Overcast BKN028 OVC110 32 31.5 98% 25 29.8 0.0
02 03:15 W 8 10.00 Overcast SCT014 BKN043 OVC110 32 31.5 98% 25 29.79 0.0
02 02:55 W 8 10.00 Overcast SCT011 OVC043 32.4 31.8 98% 26 29.79 0.0
02 02:35 W 8 10.00 Overcast SCT011 OVC041 32.4 31.6 97% 26 29.79 0.0
02 02:15 SW 7 10.00 Overcast OVC039 32.9 31.8 96% 27 29.79 0.0
02 01:55 SW 7 10.00 Overcast OVC037 32.5 32 98% 27 29.79 0.0
02 01:35 SW 7 10.00 Overcast OVC035 33.3 32 95% 28 29.79 0.0
02 01:15 SW 8 10.00 Overcast SCT032 BKN037 OVC046 33.3 32 95% 27 29.79 0.0
02 00:55 SW 9 10.00 Light Rain SCT017 OVC032 33.6 32 94% 27 29.79 0.0
02 00:35 SW 7 10.00 Overcast OVC017 33.8 32.2 94% 28 29.79 0.0
02 00:15 SW 7 10.00 Overcast OVC019 33.4 32 94% 28 29.79 0.0
01 23:55 SW 7 10.00 Overcast BKN019 OVC026 33.4 32 94% 28 29.79 0.0
01 23:35 SW 8 10.00 Overcast OVC026 33.4 32 94% 27 29.78 0.0
01 23:15 SW 9 10.00 Overcast OVC029 33.3 32 95% 26 29.78 0.0
01 22:55 SW 8 10.00 Overcast SCT023 BKN033 OVC044 33.4 32 94% 27 29.78 0.0
01 22:35 SW 9 10.00 Light Drizzle SCT025 OVC033 33.6 32.2 94% 27 29.78 0.0
01 22:15 SW 10 10.00 Overcast OVC029 33.6 32.2 94% 26 29.78 0.0
01 21:55 SW 9 10.00 Overcast BKN029 OVC070 33.8 32.5 37.4 33.8 95% 27 29.78 0.0
01 21:15 SW 10 10.00 Light Rain SCT034 SCT065 OVC095 34.7 33.1 94% 28 29.78 0.0
01 20:55 SW 8 10.00 Light Rain SCT032 BKN039 OVC060 34.9 33.8 96% 29 29.78 0.0
01 20:35 SW 12 10.00 Light Rain SCT015 SCT041 OVC055 35.2 33.8 95% 28 29.78 0.0
01 20:15 SW 10 10.00 Light Rain SCT041 BKN060 OVC070 35.8 33.8 93% 29 29.78 0.0
01 19:55 SW 12 10.00 Light Rain OVC070 35.8 34 93% 28 29.78 0.0
01 19:35 SW 12 10.00 Overcast OVC065 36 33.8 92% 29 29.78 0.0
01 19:15 SW 10 10.00 Light Rain SCT055 BKN065 OVC095 36 33.8 92% 29 29.78 0.0
01 18:55 SW 8 10.00 Overcast BKN070 OVC095 36.1 33.3 89% 30 29.78 0.0
01 18:35 SW 9 10.00 Light Rain BKN055 BKN070 OVC085 36.5 33.1 87% 30 29.77 0.0
01 18:15 SW 8 10.00 Overcast OVC055 36.5 32.7 86% 31 29.77 0.0
01 17:55 SW 9 10.00 Overcast OVC060 36.9 32.9 86% 31 29.77 0.0
01 17:35 SW 8 10.00 Overcast BKN065 OVC070 37 32.9 85% 32 29.77 0.0
01 17:15 W 10 10.00 Overcast SCT050 BKN065 OVC110 36.9 34 89% 30 29.76 0.0
01 16:55 W 9 10.00 Overcast SCT049 BKN075 OVC100 36.9 34 89% 31 29.76 0.0
01 16:35 W 8 10.00 Light Rain SCT019 SCT040 OVC080 37.4 34.5 89% 32 29.76 0.0
01 16:15 W 8 10.00 Light Rain SCT014 BKN030 OVC044 37.4 33.6 86% 32 29.76 0.0
01 15:55 W 12 10.00 Light Rain SCT015 BKN029 OVC039 37.4 33.4 39.2 37 86% 30 29.76 0.0
01 15:35 W 12 10.00 Light Rain BKN017 BKN022 OVC039 37.8 33.1 83% 31 29.76 0.0
01 15:15 W 8 10.00 Light Rain SCT016 BKN021 OVC044 37.8 34.5 88% 32 29.76 0.0
01 14:55 W 10 10.00 Light Rain SCT016 BKN022 OVC042 37.4 34 87% 31 29.76 0.0
01 14:35 W 12 10.00 Light Rain SCT010 OVC015 37.6 34.5 89% 31 29.76 0.0
01 14:15 NW 12 10.00 Light Rain BKN013 BKN024 OVC036 37.9 35.4 91% 31 29.75 0.0
Date Time (akdt) Wind (mph) Vis. (mi.) Weather Sky Cond. Air Dwpt Max. Min. Relative Humidity Wind Chill (°F) Heat Index (°F) altimeter (in) sea level (mb) 1 hr 3 hr 6 hr
6 hour
Temperature (ºF) Pressure Precipitation (in)